www.pogodaiklimat.ru
Время
(UTC), дата
22 6.10
23 6.10
00 7.10
01 7.10
02 7.10
03 7.10
04 7.10
05 7.10
06 7.10
07 7.10
08 7.10
09 7.10
10 7.10
11 7.10
12 7.10
13 7.10
14 7.10
15 7.10
16 7.10
17 7.10
18 7.10
19 7.10
20 7.10
21 7.10
22 7.10
23 7.10
00 8.10
01 8.10
02 8.10
03 8.10
04 8.10
05 8.10
06 8.10
07 8.10
08 8.10
09 8.10
10 8.10
11 8.10
12 8.10
13 8.10
14 8.10
15 8.10
16 8.10
17 8.10
18 8.10
19 8.10
20 8.10
21 8.10
22 8.10
23 8.10
00 9.10
01 9.10
02 9.10
03 9.10
04 9.10
05 9.10
06 9.10
07 9.10
08 9.10
09 9.10
10 9.10
11 9.10
12 9.10
13 9.10
14 9.10
15 9.10
16 9.10
17 9.10
18 9.10
19 9.10
20 9.10
21 9.10
22 9.10
23 9.10
00 10.10
01 10.10
02 10.10
03 10.10
04 10.10
05 10.10
06 10.10
07 10.10
08 10.10
09 10.10
10 10.10
11 10.10
12 10.10
13 10.10
14 10.10
15 10.10
16 10.10
17 10.10
18 10.10
19 10.10
20 10.10
21 10.10
22 10.10
23 10.10
00 11.10
01 11.10
02 11.10
03 11.10
04 11.10
05 11.10
06 11.10
07 11.10
08 11.10
09 11.10
10 11.10
11 11.10
12 11.10
13 11.10
14 11.10
15 11.10
16 11.10
17 11.10
18 11.10
19 11.10
20 11.10
21 11.10
22 11.10
23 11.10
00 12.10
01 12.10
02 12.10
03 12.10
04 12.10
05 12.10
06 12.10
07 12.10
08 12.10
09 12.10
10 12.10
11 12.10
12 12.10
13 12.10
14 12.10
15 12.10
16 12.10
17 12.10
18 12.10
19 12.10
20 12.10
21 12.10
22 12.10
23 12.10
00 13.10
01 13.10
02 13.10
03 13.10
04 13.10
05 13.10
06 13.10
07 13.10
08 13.10
09 13.10
10 13.10
11 13.10
12 13.10
13 13.10
14 13.10
15 13.10
16 13.10
17 13.10
18 13.10
19 13.10
20 13.10
21 13.10
Ветер
(напр.,м/с)
Видим. Явления Облачность Т
(С)
Тd
(С)
f
(%)
Тe
(С)
Тes
(С)
Комфортность P
(гПа)
Po
(гПа)
Тmin
(С)
Tmax
(С)
R
(мм)
R24
(мм)
S
(см)
В 5-8
{9}
5000 м дымка 10/8 200 м
[]
+8.4 +7.5 94 +5 +5 тепло 1013.9 1013.3
В 6-9
{9}
17 км 10/8 200 м
[]
+8.6 +7.4 92 +5 +5 тепло 1014.4 1013.9
СВ 3-5
{10}
15 км 10/10 270 м
[]
+8.7 +7.5 92 +6 +6 тепло 1015.6 1015.0
В 5-6
{8}
11 км 10/10 600 м
[]
+8.7 +7.0 89 +5 +5 тепло 1015.9 1015.5
В 5-8
{8}
13 км 10/10 2000 м
[]
+8.2 +6.3 88 +4 +4 по сезону 1015.7 1015.3
В 4-5
{8}
12 км 10/10 660 м
[]
+7.7 +5.9 88 +4 +4 по сезону 1016.4 1015.9
В 4 13 км 10/10 600 м
[]
+7.5 +5.8 89 +4 +4 по сезону 1016.9 1016.5
В 4 14 км 10/10 600 м
[]
+7.4 +5.6 88 +4 +4 по сезону 1016.9 1016.5
В 3-5
{6}
13 км 10/10 800 м
[]
+7.1 +5.3 88 +4 +4 по сезону 1017.8 1017.3 +7.1
В 3 15 км 10/10 600 м
[]
+7.4 +5.5 88 +4 +4 по сезону 1018.3 1017.9
В 4 14 км 10/10 600 м
[]
+7.9 +5.9 87 +5 +5 тепло 1017.9 1017.6
В 3-5
{7}
19 км 10/10 660 м
[]
+9.3 +6.8 84 +7 +7 тепло 1017.9 1017.5
ЮВ 3 22 км 10/10 600 м
[]
+10.1 +7.3 83 +8 +8 тепло 1018.3 1017.9
ЮВ 4 14 км 10/10 300 м
[]
+10.5 +7.7 83 +8 +8 тепло 1018.0 1017.6
Ю 3-6
{6}
11 км 10/10 330 м
[]
+10.5 +7.8 83 +8 +8 тепло 1017.5 1017.2
Ю 3 9000 м дымка 10/10 300 м
[]
+10.6 +8.2 85 +9 +9 тепло 1017.2 1016.8
ЮВ 4 10 км 10/10 300 м
[]
+10.7 +8.4 86 +8 +8 тепло 1016.7 1016.3
Ю 3-5
{7}
12 км {дымка} 10/10 360 м
[]
+11.2 +8.7 85 +9 +9 тепло 1016.4 1016.0
Ю 3 14 км 10/10 300 м
[]
+11.2 +8.4 83 +9 +9 тепло 1015.7 1015.4
Ю 3 10 км 10/10 300 м
[]
+11.1 +8.7 85 +9 +9 тепло 1015.3 1014.9
Ю 3-5
{6}
8000 м дымка 10/10 540 м
[]
+10.9 +8.7 86 +9 +9 тепло 1015.0 1014.7 +11.3
Ю 3 7000 м дымка 10/9 1000 м
[]
+10.8 +8.9 88 +9 +9 тепло 1014.3 1013.9
Ю 3 6000 м слаб. ливневой дождь 10/10 2000 м
[]
+10.9 +9.3 90 +9 +9 тепло 1013.5 1013.1
Ю 4-6
{6}
7000 м слаб. ливневой дождь 10/10 1050 м
[]
+11.4 +9.8 90 +9 +9 тепло 1012.5 1012.3
Ю 4-7
{7}
6000 м слаб. морось {дымка} 10/10 1000 м
[]
+11.7 +10.3 91 +9 +9 тепло 1011.7 1011.4 0.1
Ю 5-7
{8}
5000 м в посл. час дождь {ливн. осадки} 10/8 200 м
[]
+11.9 +11.0 94 +9 +9 тепло 1010.7 1010.4 0.5
Ю 4-7
{9}
4100 м слаб. ливневой дождь 10/10 150 м
[]
+12.2 +11.4 95 +10 +10 тепло 1009.3 1009.1 0.6
Ю 5-8
{9}
3200 м сильн. морось {ливн. осадки, дождь} 10/10 200 м
[]
+12.3 +11.6 95 +10 +10 тепло 1008.8 1008.4 1
ЮЗ 5-8
{8}
4300 м сильн. морось {ливн. осадки, дождь} 10/10 200 м
[]
+12.3 +11.7 96 +10 +10 тепло 1008.1 1007.8 2
ЮЗ 5-9
{9}
4700 м морось с дождем {ливн. осадки} 10/10 150 м
[]
+12.4 +11.7 95 +10 +10 тепло 1007.4 1007.1 1
ЮЗ 4 5000 м морось с дождем {ливн. осадки} 10/10 200 м
[]
+12.5 +12.0 97 +10 +10 тепло 1007.1 1006.7 0.6
ЮЗ 4 17 км в посл. час дождь {ливн. осадки, морось} 10/10 200 м
[]
+12.6 +12.0 96 +11 +11 тепло 1006.6 1006.2 0.4
ЮЗ 4-7
{10}
11 км {ливн. осадки, дождь} 10/10 150 м
[]
+12.9 +12.2 96 +11 +11 тепло 1006.6 1006.2 +10.8
ЮЗ 5 12 км 10/10 200 м
[]
+13.0 +12.1 94 +11 +11 тепло 1006.6 1006.2
ЮЗ 4 21 км в посл. час дождь 10/9 200 м
[]
+13.3 +12.2 93 +12 +12 тепло 1006.5 1006.1
ЮЗ 3-6
{8}
13 км в посл. час дождь {ливн. осадки} 10/10 210 м
[]
+13.8 +12.8 94 +13 +13 тепло 1006.4 1006.1 0.2
ЮЗ 4 14 км {ливн. осадки, дождь} 10/6 300 м
[]
+14.5 +12.9 90 +13 +14 тепло 1006.3 1006.0
ЮЗ 4 12 км {ливн. осадки, дождь} 10/8 300 м
[]
+14.6 +13.0 90 +13 +14 тепло 1006.1 1005.8
ЮЗ 3-5
{7}
12 км {ливн. осадки, дождь} 10/9 330 м
[]
+15.1 +13.1 88 +14 +15 тепло 1005.8 1005.5
ЮЗ 5 13 км 10/10
[]
+14.9 +10.8 76 +13 +13 тепло 1005.5 1005.1
ЮЗ 4 16 км 10/10
[]
+14.8 +11.0 78 +14 +14 тепло 1005.4 1005.0
ЮЗ 4-6
{9}
14 км 10/0
[]
+14.7 +11.4 81 +13 +13 тепло 1005.0 1004.6
ЮЗ 4 14 км 10/10
[]
+14.4 +11.5 83 +13 +13 тепло 1004.9 1004.5
ЮЗ 4 14 км 1/1
[]
+13.9 +11.2 84 +12 +12 тепло 1005.1 1004.6
ЮЗ 4-7
{8}
15 км 1/1 800 м
[]
+13.3 +10.5 83 +12 +12 тепло 1005.2 1004.7 +15.2
ЮЗ 3 14 км 3/1 600 м
[]
+12.7 +10.2 85 +11 +11 тепло 1004.9 1004.5
ЮЗ 4 15 км зарница 10/10 1500 м
[]
+13.0 +10.6 85 +11 +11 тепло 1004.9 1004.6
ЮЗ 3-4
{7}
19 км в посл. час гроза без осадков 4/4 90 м
[]
+12.0 +10.2 89 +10 +10 тепло 1005.5 1005.1 0.3
ЮЗ 4-7
{7}
20 км {гроза, ливн. осадки} 1/1 600 м
[]
+11.1 +9.7 91 +9 +9 тепло 1005.4 1005.0
ЮЗ 4-7
{8}
19 км {гроза, ливн. осадки} 6/6 1000 м
[]
+11.8 +10.1 89 +10 +10 тепло 1005.5 1005.1
ЮЗ 4-7
{9}
14 км {гроза, ливн. осадки} 4/4 870 м
[]
+11.9 +10.3 90 +10 +10 тепло 1006.1 1005.7
ЮЗ 4-6
{7}
17 км в посл. час дождь {ливн. осадки} 3/3 1500 м
[]
+11.8 +9.6 86 +10 +10 тепло 1006.0 1005.6
ЮЗ 4-7
{7}
17 км в посл. час дождь {ливн. осадки, морось} 4/4 600 м
[]
+11.5 +9.9 90 +9 +9 тепло 1006.0 1005.7
ЮЗ 4-7
{8}
13 км {ливн. осадки, морось} 10/10 840 м
[]
+11.4 +10.2 92 +9 +9 тепло 1006.1 1005.7
ЮЗ 4 15 км {ливн. осадки, морось} 10/10
[]
+11.2 +9.9 92 +9 +9 тепло 1006.1 1005.7
ЮЗ 5 15 км {ливн. осадки, морось} 10/10
[]
+11.0 +9.3 89 +8 +8 тепло 1005.8 1005.5
Ю 4-7
{9}
15 км {ливн. осадки, морось} 10/1 300 м
[]
+10.8 +9.1 89 +8 +8 тепло 1005.6 1005.2 +10.7
Ю 4 16 км 10/10 300 м
[]
+11.2 +9.7 90 +9 +9 тепло 1005.5 1005.1
Ю 5 15 км 10/10
[]
+11.8 +10.0 89 +9 +9 тепло 1005.3 1004.9
ЮЗ 5-9
{11}
19 км 10/10 360 м
[]
+12.5 +10.0 85 +10 +10 тепло 1004.9 1004.5
ЮЗ 6 25 км 10/10 300 м
[]
+12.4 +9.5 82 +10 +10 тепло 1004.4 1004.0
ЮЗ 6 40 км 10/10
[]
+12.8 +8.8 77 +10 +10 тепло 1003.9 1003.5
ЮЗ 4-7
{11}
45 км 10/10 1500 м
[]
+12.8 +8.5 75 +11 +11 тепло 1003.8 1003.4
ЮЗ 5 40 км 10/10 1500 м
[]
+13.1 +7.8 70 +11 +11 тепло 1003.9 1003.4
ЮЗ 5 45 км 10/10 1500 м
[]
+13.5 +8.2 70 +12 +12 тепло 1003.7 1003.3
ЮЗ 5-10
{12}
24 км в посл. час дождь 10/10 720 м
[]
+13.1 +8.5 74 +11 +11 тепло 1003.6 1003.3
ЮЗ 3 5000 м ливневой дождь 10/8 600 м
[]
+11.8 +9.7 87 +10 +10 тепло 1003.6 1003.3 2
ЮЗ 5 22 км слаб. ливневой дождь 10/9 600 м
[]
+11.9 +9.7 86 +9 +9 тепло 1004.0 1003.6 0.2
ЮЗ 4-6
{10}
6000 м сильн. дождь {ливн. осадки} 10/10 150 м
[]
+10.8 +9.5 92 +8 +8 тепло 1004.4 1004.1 +13.6 5
З 4 12 км слаб. ливневой дождь 9/6 600 м
[]
+11.0 +9.8 92 +8 +8 тепло 1005.1 1004.7 5
Ю 3 28 км в посл. час дождь {ливн. осадки} 10/6 1500 м
[]
+10.7 +9.5 92 +9 +9 тепло 1004.8 1004.4 0.2
ЮЗ 4-8
{8}
29 км {ливн. осадки, дождь} 10/0
[]
+11.1 +9.5 90 +9 +9 тепло 1004.7 1004.3
ЮЗ 6-10
{10}
7000 м ливневой дождь 10/8 1000 м
[]
+10.5 +8.9 90 +7 +7 тепло 1005.2 1004.9 2
З 3-5
{8}
4600 м сильн. дождь {ливн. осадки} 10/6 600 м
[]
+10.5 +9.3 92 +8 +8 тепло 1005.5 1005.2 3
ЮЗ 5-9
{10}
15 км слаб. морось {гроза, дождь} 10/10 330 м
[]
+10.4 +8.7 89 +7 +7 тепло 1005.5 1005.1 0.3
ЮЗ 5-9
{9}
21 км в посл. час морось 4/4 1000 м
[]
+10.3 +8.9 91 +7 +7 тепло 1005.7 1005.3
ЮЗ 4-6
{7}
15 км 10/8 300 м
[]
+9.9 +8.8 93 +7 +7 тепло 1006.1 1005.6
ЮЗ 4-7
{7}
9000 м слаб. ливневой дождь {морось} 6/6 210 м
[]
+10.1 +9.1 94 +7 +7 тепло 1006.3 1005.9 0.1
ЮЗ 4 30 км в посл. час дождь {ливн. осадки, морось} 8/8
[]
+9.9 +8.6 92 +7 +7 тепло 1006.5 1006.1 0.2
ЮЗ 5 19 км в посл. час дождь {ливн. осадки, морось} 5/5 1500 м
[]
+10.0 +8.9 93 +7 +7 тепло 1007.2 1006.7
ЮЗ 4-6
{8}
12 км {ливн. осадки, морось} 8/8 180 м
[]
+10.0 +9.2 95 +7 +7 тепло 1007.7 1007.3 +9.8
ЮЗ 4 20 км 4/4 1000 м
[]
+10.4 +9.2 92 +8 +8 тепло 1008.8 1008.4
ЮЗ 4 27 км в посл. час дождь 4/4 1500 м
[]
+11.8 +9.8 88 +10 +10 тепло 1009.6 1009.2
ЮЗ 5-7
{8}
7000 м слаб. ливневой дождь 6/6 360 м
[]
+11.9 +9.9 88 +9 +10 тепло 1010.5 1010.1 0.1
ЮЗ 5 18 км слаб. ливневой дождь 4/4 1500 м
[]
+13.4 +10.1 80 +11 +13 тепло 1010.9 1010.4 0.1
ЮЗ 5 30 км в посл. час дождь 3/1 300 м
[]
+15.0 +10.0 72 +14 +16 тепло 1011.2 1010.8 0.1
ЮЗ 6-10
{14}
28 км {ливн. осадки} 9/6 960 м
[]
+14.2 +8.7 69 +12 +13 тепло 1011.6 1011.2
ЮЗ 3 18 км слаб. ливневой дождь 10/6 1500 м
[]
+13.5 +9.6 77 +12 +13 тепло 1012.3 1011.9 0.1
ЮЗ 4 25 км слаб. ливневой дождь 10/10 1500 м
[]
+14.4 +9.3 71 +13 +13 тепло 1012.5 1012.1
ЮЗ 4-8
{11}
26 км в посл. час дождь {ливн. осадки} 9/9 870 м
[]
+14.1 +8.8 70 +13 +13 тепло 1012.8 1012.3
ЮЗ 5 25 км {ливн. осадки} 9/9 1000 м
[]
+14.2 +9.3 72 +13 +13 тепло 1012.9 1012.5
ЮЗ 4 26 км {ливн. осадки} 10/10
[]
+13.2 +9.0 76 +12 +12 тепло 1013.2 1012.7
ЮЗ 3-5
{9}
19 км {ливн. осадки} 5/0
[]
+12.4 +9.1 80 +11 +11 тепло 1013.4 1012.9 +15.6
ЮЗ 4 17 км 10/10
[]
+13.1 +9.6 79 +11 +11 тепло 1013.2 1012.7
ЮЗ 4 21 км 10/10 1500 м
[]
+13.2 +9.6 79 +12 +12 тепло 1013.1 1012.6
ЮЗ 5-8
{9}
18 км 10/9 930 м
[]
+13.4 +9.5 77 +11 +11 тепло 1013.0 1012.6
ЮЗ 5-9
{9}
17 км 10/9 1000 м
[]
+13.6 +10.0 79 +12 +12 тепло 1012.7 1012.3
ЮЗ 6-8
{10}
19 км 10/10 1000 м
[]
+13.7 +9.8 77 +12 +12 тепло 1012.4 1012.1
ЮЗ 7-11
{11}
24 км 10/10 1050 м
[]
+13.9 +9.1 73 +12 +12 тепло 1011.8 1011.5
Ю 6-9
{10}
24 км 10/10 600 м
[]
+13.7 +9.0 73 +12 +12 тепло 1011.7 1011.4
ЮЗ 5-8
{8}
14 км слаб. ливневой дождь 10/9 600 м
[]
+12.5 +10.1 85 +10 +10 тепло 1011.4 1011.1 0.7
ЮЗ 6-12
{12}
28 км в посл. час дождь {ливн. осадки, морось} 10/10 660 м
[]
+13.6 +10.1 79 +11 +11 тепло 1010.8 1010.4 0.1
ЮЗ 6 27 км {ливн. осадки, морось} 10/10 600 м
[]
+14.0 +10.4 79 +12 +12 тепло 1010.7 1010.3
ЮЗ 7 24 км {ливн. осадки, морось} 10/9 600 м
[]
+13.6 +10.8 83 +11 +11 тепло 1010.5 1010.2
ЮЗ 6-10
{13}
29 км {ливн. осадки, морось} 10/10 480 м
[]
+13.6 +10.9 84 +11 +11 тепло 1010.3 1009.9 +12.2
ЮЗ 6 25 км 10/9 600 м
[]
+13.5 +10.9 84 +11 +11 тепло 1010.3 1009.9
ЮЗ 7 24 км 10/10 300 м
[]
+13.8 +11.2 84 +11 +11 тепло 1010.4 1010.1
ЮЗ 6-11
{12}
27 км 10/10 360 м
[]
+14.2 +11.6 84 +12 +12 тепло 1010.4 1010.0
ЮЗ 6 18 км морось с дождем {ливн. осадки} 10/10 300 м
[]
+14.3 +12.1 87 +12 +12 тепло 1010.2 1009.9
ЮЗ 7 16 км морось {ливн. осадки, дождь} 10/10 300 м
[]
+14.5 +12.1 86 +12 +12 тепло 1010.1 1009.7 0.1
ЮЗ 7-14
{14}
23 км слаб. ливневой дождь {морось} 10/10 480 м
[]
+14.8 +12.2 84 +13 +13 тепло 1009.5 1009.1
Ю 7 17 км слаб. морось {дождь} 10/8 300 м
[]
+14.5 +12.5 88 +12 +12 тепло 1008.8 1008.5 0.2
ЮЗ 7 12 км слаб. дождь {морось} 10/6 300 м
[]
+14.2 +12.6 90 +12 +12 тепло 1008.4 1008.0 0.5
Ю 7-12
{13}
11 км морось с дождем {ливн. осадки} 10/10 330 м
[]
+14.2 +12.6 90 +12 +12 тепло 1007.7 1007.5 0.3
Ю 7 40 км в посл. час дождь {ливн. осадки, морось} 10/9 600 м
[]
+14.8 +12.3 85 +13 +13 тепло 1007.5 1007.2
Ю 7 40 км {ливн. осадки, дождь} 10/10 600 м
[]
+15.1 +12.0 82 +13 +13 тепло 1007.2 1006.9
ЮЗ 7-12
{12}
45 км {ливн. осадки, дождь} 10/10 660 м
[]
+15.6 +12.2 80 +14 +14 тепло 1007.2 1006.8 +15.7
ЮЗ 7 45 км 10/10 600 м
[]
+16.1 +12.4 79 +15 +15 тепло 1006.7 1006.4
ЮЗ 8 45 км 10/10 600 м
[]
+16.2 +12.5 79 +15 +15 тепло 1006.9 1006.5
ЮЗ 7-13
{13}
40 км 10/10 600 м
[]
+16.6 +12.6 77 +15 +15 тепло 1007.1 1006.8
ЮЗ 7-11
{11}
45 км 10/10 600 м
[]
+16.7 +12.5 76 +15 +15 тепло 1006.8 1006.4
ЮЗ 7-12
{12}
45 км 10/10 600 м
[]
+16.8 +12.3 75 +16 +16 тепло 1006.6 1006.2
ЮЗ 6-10
{13}
45 км 10/10 1170 м
[]
+16.6 +12.3 76 +16 +16 тепло 1006.4 1006.0
ЮЗ 6-10
{12}
45 км 10/10 1000 м
[]
+16.7 +12.3 75 +16 +16 тепло 1006.2 1005.8
ЮЗ 6-10
{12}
45 км 10/10 1000 м
[]
+16.4 +12.3 77 +15 +15 тепло 1006.0 1005.6
СЗ 2-4
{13}
8000 м слаб. морось {дождь, дымка} 10/10 180 м
[]
+12.9 +11.8 93 +12 +12 тепло 1006.7 1006.3
З 2 7000 м в посл. час дождь {морось} 10/8 200 м
[]
+12.8 +12.0 95 +12 +12 тепло 1006.8 1006.3 0.3
З 2 3100 м дымка {дождь} 10/10 200 м
[]
+12.5 +11.9 96 +11 +11 тепло 1006.8 1006.4 0.1
З 1-2
{4}
1900 м морось с дождем {дымка} 10/10 90 м
[]
+12.5 +12.1 97 +12 +12 тепло 1007.2 1006.8 +12.5 0.8
ЮЗ 2 2500 м в посл. час дождь {морось} 10/10 100 м
[]
+12.5 +12.1 97 +11 +11 тепло 1007.8 1007.2 0.5
ЮЗ 3 2900 м дымка 10/8 200 м
[]
+12.6 +12.1 97 +11 +11 тепло 1008.4 1008.0 0.3
ЮЗ 3-5
{5}
2200 м дымка 10/10 90 м
[]
+12.8 +12.2 96 +11 +12 тепло 1009.1 1008.6 0.3
З 3 2700 м слаб. ливневой дождь {морось} 10/6 200 м
[]
+12.4 +11.7 95 +11 +11 тепло 1009.6 1009.2 0.4
З 2 3200 м в посл. час дождь {ливн. осадки} 10/8 200 м
[]
+12.1 +11.4 95 +11 +11 тепло 1010.1 1009.7 0.3
С 1-2
{5}
3600 м в посл. час дождь {ливн. осадки} 10/10 90 м
[]
+11.9 +11.4 97 +12 +12 тепло 1010.3 1009.8 0.2
С 1 2300 м сильн. морось {ливн. осадки} 10/10 100 м
[]
+11.8 +11.3 97 +12 +12 тепло 1010.4 1010.1 0.8
В 1 4300 м сильн. морось {ливн. осадки} 10/10 100 м
[]
+11.8 +11.3 97 +12 +12 тепло 1010.3 1009.9 1
СВ 1-1
{2}
6000 м в посл. час дождь {ливн. осадки, морось} 10/10 60 м
[]
+12.0 +11.5 97 +12 +12 тепло 1010.3 1009.7 0.4
В 2 7000 м в посл. час дождь {ливн. осадки, морось} 10/10 100 м
[]
+11.8 +11.4 97 +11 +11 тепло 1009.8 1009.3 0.2
СВ 1 8000 м в посл. час дождь {ливн. осадки, морось} 10/10 200 м
[]
+11.6 +11.3 98 +11 +11 тепло 1010.0 1009.5 0.2
В 1-2
{3}
3900 м морось {ливн. осадки, дождь} 10/10 60 м
[]
+11.6 +11.1 97 +11 +11 тепло 1009.7 1009.4 +13.0 0.4
В 1 2900 м в посл. час морось 10/10 100 м
[]
+11.6 +11.3 98 +11 +11 тепло 1009.9 1009.5
СВ 2 3700 м дымка 10/9 100 м
[]
+11.5 +11.0 97 +10 +10 тепло 1010.1 1009.7
СВ 1-2
{3}
4000 м дымка 10/10 60 м
[]
+11.5 +11.0 97 +11 +11 тепло 1010.3 1009.9 0.1
В 2-4
{5}
9000 м дымка 10/9 300 м
[]
+11.6 +10.8 95 +10 +10 тепло 1010.0 1009.6
В 2-3
{4}
4700 м дымка 10/10 100 м
[]
+11.5 +10.9 96 +10 +10 тепло 1009.3 1009.1
В 2-3
{5}
2300 м дымка 10/10 60 м
[]
+11.2 +10.7 97 +10 +10 тепло 1008.9 1008.6
В 1-2
{2}
200 м туман {дымка} ?/? +11.2 +11.1 99 +11 +11 тепло 1008.7 1008.3
В 1-2
{2}
1500 м в посл. час туман {дымка} 10/9 100 м
[]
+11.4 +11.2 99 +11 +11 тепло 1008.1 1007.7
ЮВ 1-2
{2}
2500 м дымка {туман} 10/10 930 м
[]
+11.9 +11.6 98 +12 +12 тепло 1007.8 1007.4
ЮВ 2 3600 м дымка {туман} 10/10 1500 м
[]
+12.6 +12.3 98 +12 +12 тепло 1007.6 1007.2
ЮВ 1 3700 м дымка {туман} 8/8
[]
+13.1 +12.7 97 +13 +13 тепло 1007.3 1007.0
ЮВ 3-4
{4}
4100 м в посл. час туман {дымка} 6/6 900 м
[]
+13.4 +13.2 99 +12 +12 тепло 1006.9 1006.6 +11.1
Ю 3 8000 м дымка 10/10
[]
+14.6 +14.2 97 +14 +14 тепло 1007.3 1006.9
Ю 3 11 км 10/10
[]
+15.7 +14.9 95 +15 +15 тепло 1007.1 1006.8
Ю 4-7
{8}
15 км 10/10 480 м
[]
+17.1 +15.7 91 +17 +17 тепло 1006.4 1006.1
Ю 4 20 км слаб. ливневой дождь 10/10 1500 м
[]
+18.0 +16.0 88 +18 +18 тепло 1006.4 1006.1
Ю 4 23 км в посл. час дождь {ливн. осадки} 10/10 1500 м
[]
+19.7 +16.4 81 +22 +22 комфорт 1005.9 1005.6
Ю 6-10
{10}
30 км {ливн. осадки, дождь} 9/9 1500 м
[]
+21.9 +16.8 73 +26 +26 душно 1004.9 1004.6
Ю 5 35 км 9/8 1000 м
[]
+21.7 +16.1 70 +25 +26 комфорт 1004.7 1004.3
Ю 5 40 км 10/10 1000 м
[]
+21.3 +15.5 70 +25 +25 комфорт 1004.9 1004.5
ЮЗ 5-9
{11}
35 км 10/10 1170 м
[]
+21.5 +15.3 68 +25 +25 комфорт 1004.7 1004.6
Ю 4 35 км 10/6 1500 м
[]
+21.0 +15.6 71 +25 +25 комфорт 1004.8 1004.5
ЮЗ 6 5000 м морось с дождем {ливн. осадки} 10/6 1000 м
[]
+18.2 +15.9 86 +18 +18 тепло 1005.8 1005.4 1
З 3-7
{15}
20 км слаб. морось {дождь} 10/10 60 м
[]
+17.1 +15.9 93 +17 +17 тепло 1006.8 1006.3 +22.0 5
ЮЗ 5 40 км в посл. час дождь {морось} 10/10 1500 м
[]
+16.0 +13.5 85 +15 +15 тепло 1008.0 1007.5
ЮЗ 4 24 км {дождь, морось} 10/10 1500 м
[]
+15.7 +13.5 87 +15 +15 тепло 1008.8 1008.4
ЮЗ 5-8
{9}
22 км в посл. час дождь {ливн. осадки, морось} 10/10 660 м
[]
+15.4 +13.3 87 +14 +14 тепло 1009.7 1009.2
Местоположение метеостанции Де Билт (Нидерланды): широта 52.10 долгота 5.18 высота над уровнем моря 4 м.
В архиве по умолчанию представлена погода в Де Билте за последнюю неделю. Архивные данные за месяц целиком и за предыдущие месяцы, начиная с января 2011 года, Вы можете получить, выбрав интересующий диапазон дат из раскрывающегося списка и нажав кнопку "Найти!".
*Определитесь, кто Вы:
Внимание! Время в таблицах - всемирное. Для получения местного времени необходимо прибавить поправку, которая равна 1 ч.
Смотрите также архив погоды в соседних городах и на ближайших метеорологических станциях:
Партнеры нашего сайта:      
Пояснения к столбцам:
  • Ветер - указаны скорость ветра в м/с - средняя за 10 мин, порывы в срок и между сроками (в фигурных скобках) и направление, откуда дует ветер: С - северный,
  • СВ - северо-восточный, В - восточный, ЮВ - юго-восточный, Ю - южный, ЮЗ - юго-западный, З - западный, СЗ - северо-западный.
  • Видимость - горизонтальная дальность видимости в метрах или километрах. При видимости от 1 до 10 км при отсутствии осадков обычно наблюдается дымка, при ухудшении видимости до 1 км и менее - туман. В сухую погоду видимость может ухудшаться дымом, пылью или мглою.
  • Явления - указаны атмосферные явления, наблюдавшиеся в срок или в последний час перед сроком; фигурными скобками обозначены явления, наблюдавшиеся между сроками (за 1-3 часа до срока); квадратными скобками обозначены град или гололедные отложения с указанием их диаметра в мм.
  • Облачность - указаны через наклонную черту общая и нижняя облачность в баллах и высота нижней границы облаков в метрах; квадратными скобками обозначены формы облаков: Ci - перистые, Cs - перисто-слоистые, Cc - перисто-кучевые, Ac - высококучевые, As - высокослоистые, Sc - слоисто-кучевые, Ns - слоисто-дождевые, Cu - кучевые, Cb - кучево-дождевые. Подробнее классификацию облаков см. в Атласе облаков (PDF).
  • T - Температура воздуха - температура, измеренная на высоте 2 м над землей.
  • Td - Температура точки росы - температура, при понижении до которой содержащийся в воздухе водяной пар достигнет насыщения.
  • f - Относительная влажность воздуха - влажноcть воздуха, измеренная на высоте 2 м над землей.
  • Te - Эффективная температура - температура, которую ощущает одетый по сезону человек в тени. Характеристика душности погоды. При расчете учитывается влияние влажности воздуха и скорости ветра на теплоощущения человека.
  • Tes - Эффективная температура на солнце - температура, которую ощущает человек, с поправкой на солнечный нагрев. Характеристика знойности погоды. Зависит от высоты солнца над горизонтом, облачности и скорости ветра. Ночью, в пасмурную погоду, а также при ветре 12 м/с и более поправка равна нулю.
  • P - Атмосферное давление - приведенное к уровню моря атмосферное давление.
  • Po - Атмосферное давление - измеренное на уровне метеостанции атмосферное давление.
  • Tmin - Минимальная температура - минимум температуры воздуха на высоте 2 м над землей.
  • Tmax - Максимальная температура - максимум температуры воздуха на высоте 2 м над землей.
  • R - Количество осадков - Количество выпавших осадков за период времени, мм. При наведении курсора мыши на число - период времени, за который выпало указанное количество осадков.
  • R24 - Количество осадков - Количество выпавших осадков за 24 часа, мм.
  • S - Снежный покров - Высота снежного покрова, см. При наведении курсора мыши на число - состояние снежного покрова и степень покрытия местности в баллах.